Find Starlink 3872

NORAD ID: 52453 Int'l Des: 2022-049 Owner: SPXS Country: US Constellation: starlink operational
LEOCIRCULAR

Live-Position

3D-Globus wird geladen...

Über Starlink 3872

Beschreibung wird geladen...

Nächste Überflüge

Passes for default location (London). Set your location on the main map for personalized predictions.

Höhenverlauf

Loading altitude history...

Zweizeiliger Elementsatz

1 52453U 22049C 26132.29503389 .00000528 00000-0 51276-4 0 9999
2 52453 53.2160 143.5855 0001205 84.9343 275.1787 15.08840778221716
Epoch: 12. Mai 2026 • Age: 8 hours

Aktueller Status

Höhe 543.1 km
Geschwindigkeit 7.60 km/s
Subsatellitenpunkt 41.97°N, 175.98°E
Startdatum 6. Mai 2022
Alter 4 years
Typ internet

Technische Details

Klassifizierung Payload
Masse 297.00 kg
Trockenmasse 220.00 kg
Gesamtmasse 297.00 kg
Länge 0.20 m
Durchmesser 2.80 m
Spannweite 9.00 m
Form Box + pan
Hersteller SPXS
Bus-Typ Starlink
Phasenstatus In Orbit
Besitzer/Staat SPXS/US

Most Searched